STARLINK-1635, 46172

Orbit data source: Space-Track

STARLINK-1635, 46172 is a payload satellite owned by SpaceX/Seattle (US) in LEO that was launched on Tue, 18 Aug 2020 UTC via an FALCON 9 launch vehicle from the Air Force Eastern Test Range (AFETR). Payload-class satellites include a variety of spacecraft equipped with specific instruments for various scientific and technological missions. These include communications satellites like Starlink; space stations such as the ISS; scientific satellites like the Hubble; Earth observation satellites from companies like Planet Labs, Umbra, and HawkEye 360; GPS; miniature CubeSats for education and research; and military/defense satellites.

Loading next visibility...
Identifier
46172, 2020-057BH
Orbit
LEO
Country
Flag of USUS
Related business
Manufacturer
SpaceX/Seattle
Mission
Partially operational Commercial Communications
Bus & Motor
STARLINK, Unknown motor
Mass
260 kg wet, ~248 kg dry
Launch date (UTC)
2020-08-18 (6 years ago)
Launch vehicle
FALCON 9
Launch site
Air Force Eastern Test Range (AFETR)
Object type
Payload
Rocket body
Debris
Shape & HBR
Box + 1 Pan, 10.1 m
Radar Cross Section
13.562 m², Large (>1 m²)

Expand to show TLE details & history
Last TLE update: 16 hours ago

TLE from 16 hours ago
0 STARLINK-1635
1 46172U 20057BH  26129.79095909  .00095533  00000-0  65912-3 0  9993
2 46172  53.0404 316.5950 0006160 204.9612 155.1109 15.73812839317734
Epoch: 2026-05-09T18:58Z
TLE epoch observation values (Epoch: 2026-05-09T18:58:58.865Z)
Latitude
-0.00002°
Longitude
164.24639°
Altitude
352.674 km
Speed
7.697 km/s
True Right ascension
21h 06m 22s
True Declination
0° 00' 00"
Sunlit
Object was in daylight at epoch
Visualization orbit readout
Latitude
Unknown
Longitude
Unknown
Altitude
Unknown
Speed
Unknown
Apparent Right ascension
Unknown
Apparent Declination
Unknown
Sunlit
N/A
Visualization observer readout
Local Sidereal Time
18:51:04
Azimuth
Unknown
Elevation
Unknown
Doppler factor
Unknown
Orbital elements
Apogee altitude
352.436 km
Perigee altitude
344.149 km
Semi-major axis
6,726.429 km
Eccentricity
0.00062
Inclination
53.0404°
RAAN
316.595°
Arg. of periapsis
204.9612°
True anomaly
155.14059°
Mean anomaly
155.1109°
Eccentric anomaly
155.12575°
Mean motion
3.93429 °/min
Orbital period
91.5 mins
BSTAR
0.00065912
Loading maneuver chart data...
Computing Atmospheric mass density...

Documentation

Showing up to 5 results
|